SPROUT
1 39770U 14029E 20261.89099760 .00000656 00000-0 77761-4 0 9990
2 39770 097.9020 007.8084 0009523 030.9341 329.2425 14.87857088342801
DUCHIFAT-1
1 40021U 14033M 20261.76117131 .00000441 00000-0 50488-4 0 9994
2 40021 97.9442 193.5749 0012722 350.0242 10.0722 14.90973266339646
NANOSATCBR1
1 40024U 14033Q 20261.76866173 .00000246 00000-0 31362-4 0 9997
2 40024 97.9275 189.6578 0012136 355.2186 4.8914 14.90132692339501
DTUSAT-2
1 40030U 14033W 20261.76766897 .00000156 00000-0 22725-4 0 9999
2 40030 97.9008 183.3248 0011902 359.2836 0.8362 14.88759066339255
EO-80
1 40032U 14033Y 20261.45360711 .00000202 00000-0 27673-4 0 9991
2 40032 097.9015 183.0144 0011900 001.1819 358.9423 14.88709739338671
ANTELSAT
1 40034U 14033AA 20261.57071068 .00000153 00000-0 29758-4 0 9991
2 40034 097.7042 112.8039 0059978 061.6394 299.0845 14.74296673335459
VELOX-1
1 40057U 14034E 20261.84938215 .00000241 00000-0 41087-4 0 9990
2 40057 98.2928 41.4162 0010244 203.9190 156.1544 14.77924997335285
DAURIA DX 1
1 40071U 14037C 20261.78357760 .00000060 00000-0 15300-4 0 9990
2 40071 98.4637 85.3132 0007940 193.5316 166.5687 14.81390474334922
HODOYOSHI-1
1 40299U 14070B 20261.77711053 .00000442 00000-0 20996-4 0 9998
2 40299 97.3168 336.3476 0011595 225.6071 283.2321 15.24166022325871
CHUBUSAT-1
1 40300U 14070C 20261.82336715 .00000374 00000-0 18969-4 0 9996
2 40300 97.2799 328.1895 0018242 247.1725 249.6815 15.22615378325569
QSAT-EOS
1 40301U 14070D 20261.79234080 .00001341 00000-0 52660-4 0 9996
2 40301 97.2865 334.1089 0023671 218.3263 284.9607 15.27200509326029
FIREBIRD FU3
1 40377U 15003B 20261.80602978 .00001188 00000-0 48977-4 0 9998
2 40377 099.0882 340.8868 0122891 006.1245 354.1453 15.20397569311330
FIREBIRD FU4
1 40378U 15003C 20261.78923877 .00001236 00000-0 50721-4 0 9994
2 40378 099.0885 340.9717 0123055 006.0411 354.2269 15.20416148311336
GRIFEX
1 40379U 15003D 20261.78728408 .00001104 00000-0 49714-4 0 9992
2 40379 99.0940 332.3401 0132707 32.7639 328.1731 15.16654719310848
NO-84
1 40654U 15025D 20260.52080124 .00014589 00000-0 15900-3 0 338
2 40654 54.9827 240.3061 0115407 65.6038 295.7054 15.55866877183190
DEORBITSAIL
1 40719U 15032E 20261.76889864 .00000295 00000-0 48879-4 0 9995
2 40719 097.8571 148.0811 0014875 271.1197 088.8309 14.77066939279721
NUDT-PHONESAT
1 40900U 15049B 20261.82658741 .00001840 00000-0 77798-4 0 9999
2 40900 97.4308 271.9953 0013379 26.8068 98.0634 15.24437881277262
XW-2A
1 40903U 15049E 20261.78249220 .00001754 00000-0 41130-4 0 9990
2 40903 97.2791 310.7694 0011282 292.1450 203.6991 15.43411473280711
XW-2C
1 40906U 15049H 20261.78446935 .00000457 00000-0 27088-4 0 9990
2 40906 97.4799 261.7898 0016225 57.0418 67.9386 15.16171853276246
XW-2D
1 40907U 15049J 20261.82900757 .00000407 00000-0 24349-4 0 9995
2 40907 97.4784 261.5562 0015558 54.0602 67.4655 15.16416489276271
LILACSAT-2
1 40908U 15049K 20261.77511837 .00000037 00000-0 56220-5 0 9990
2 40908 97.4949 259.7286 0017498 64.6179 60.1071 15.14099666275967
XW-2E
1 40909U 15049L 20261.80493376 .00000969 00000-0 50073-4 0 9995
2 40909 97.4651 265.1612 0014732 45.7263 79.5372 15.18594658276542
XW-2F
1 40910U 15049M 20261.90631120 .00000798 00000-0 42368-4 0 9997
2 40910 97.4706 264.3446 0015821 43.7729 22.1741 15.18101677276365
XW-2B
1 40911U 15049N 20261.81790716 .00000555 00000-0 31999-4 0 9994
2 40911 97.4798 262.2440 0015587 54.7956 68.8292 15.16341768276162
DCBB
1 40912U 15049P 20261.83095113 .00000961 00000-0 47009-4 0 9996
2 40912 97.4492 268.5059 0015539 22.4352 101.1021 15.20517963276751
TW-1C
1 40926U 15051B 20261.79911535 .00027945 00000-0 23472-3 0 9992
2 40926 97.0746 314.3674 0007287 100.1630 324.4860 15.69840404281491
TW-1A
1 40928U 15051D 20261.84000491 .00002476 00000-0 57857-4 0 9997
2 40928 97.1050 287.4185 0009391 200.5307 332.5133 15.43072399279619
IO-86
1 40931U 15052B 20261.74629660 .00000677 00000-0 52444-5 0 9995
2 40931 5.9983 37.2462 0012919 143.0474 217.0496 14.76642493268924
LQSat
1 40958U 15057A 20261.76650299 .00000013 00000-0 95894-5 0 9993
2 40958 097.8442 322.0934 0017426 209.3697 150.6533 14.73130006266104
ATHENOXAT-1
1 41168U 15077C 20261.24543637 .00001697 00000-0 52741-4 0 9991
2 41168 14.9880 107.8472 0011353 326.0560 33.9034 15.14549991263287
ChubuSat-2
1 41338U 16012B 20261.91310012 .00000278 00000-0 14808-4 0 9999
2 41338 031.0030 118.6823 0013852 312.1220 047.8238 15.00328518251639
ChubuSat-3
1 41339U 16012C 20261.76466307 .00000221 00000-0 10314-4 0 9998
2 41339 31.0116 117.1559 0013698 318.8247 41.1366 15.00489675251614
Horyu-4
1 41340U 16012D 20261.83510945 .00000401 00000-0 23594-4 0 9990
2 41340 031.0050 103.4435 0013936 344.8594 015.1623 15.01555555251779
OUFTI-1
1 41458U 16025C 20261.84362650 .00000789 00000-0 43668-4 0 9996
2 41458 098.1133 017.3624 0161409 258.4606 099.8461 15.07085913241399
e-st@r-II
1 41459U 16025D 20261.85017793 .00001393 00000-0 74071-4 0 9997
2 41459 98.1121 16.7053 0162819 260.6612 97.6161 15.06636145241351
AAUSAT4
1 41460U 16025E 20261.77700790 .00001654 00000-0 84269-4 0 9996
2 41460 98.1081 19.2949 0151722 248.5319 109.9649 15.09029997241565
LO-87
1 41557U 16033B 20261.84019120 .00001052 00000-0 40862-4 0 9993
2 41557 097.4026 351.4708 0014978 118.1381 242.1374 15.28215456239884
NuSat2
1 41558U 16033C 20261.81598794 .00001175 00000-0 42711-4 0 9991
2 41558 097.4090 354.1008 0014035 114.6731 245.5973 15.30221688240019
Lapan A3
1 41603U 16040E 20261.92352958 .00000053 00000-0 55788-5 0 9995
2 41603 097.3001 312.5242 0011835 235.1206 298.1681 15.19870114235183
Swayam
1 41607U 16040J 20261.82410417 .00001137 00000-0 49100-4 0 9997
2 41607 097.3089 318.9840 0012035 214.7332 145.3121 15.24468702235491
Pratham
1 41783U 16059A 20261.73125631 .00000036 00000-0 16020-4 0 9995
2 41783 098.0075 314.5517 0034110 027.8466 332.4553 14.63073411212372
AlSat 1N
1 41789U 16059G 20261.80560244 .00000045 00000-0 17427-4 0 9994
2 41789 98.0115 317.6581 0028634 15.1870 345.0176 14.64341684212542
ScatSat
1 41790U 16059H 20261.80655172 -.00000006 00000-0 92066-5 0 9992
2 41790 98.1533 299.3075 0006167 10.9011 349.2310 14.50927784210618
TY-1
1 41844U 16066D 20261.83268782 .00000783 00000-0 34178-4 0 9990
2 41844 97.4040 268.9748 0015741 25.0330 99.5032 15.24988556214347
Pegasus-1
1 41846U 16066F 20261.63612601 .00000139 00000-0 32285-4 0 9995
2 41846 098.6529 312.6123 0365866 318.8067 038.6025 14.37816685202219
CAS-2T
1 41847U 16066G 20261.88324321 .00000017 00000-0 13781-4 0 9997
2 41847 098.6449 313.2834 0364775 313.6095 043.5350 14.38090704202706
EO-88
1 42017U 17008BX 20261.77343195 .00001188 00000-0 47920-4 0 9994
2 42017 097.3523 327.9628 0006195 012.2622 347.8767 15.26733470199636
CAS-4B
1 42759U 17034B 20261.83572223 -.00000010 00000-0 12829-4 0 9993
2 42759 43.0183 239.4570 0011358 258.6405 175.4404 15.09881344179933
CAS-4A
1 42761U 17034D 20261.84165411 .00000011 00000-0 14094-4 0 9990
2 42761 43.0184 238.6638 0011835 259.3174 176.4106 15.09960480179933
UCLSat
1 42765U 17036A 20261.82546168 .00000962 00000-0 42853-4 0 9995
2 42765 097.2919 313.5496 0012774 065.0314 295.2249 15.23712102180640
NIUSat
1 42766U 17036B 20261.72207771 .00000709 00000-0 34066-4 0 9995
2 42766 097.2915 310.6652 0016830 059.6366 300.6531 15.21865549179726
LituanicaSAT 2
1 42768U 17036D 20261.63445410 .00001678 00000-0 71153-4 0 9995
2 42768 97.2980 313.4902 0015862 55.5736 304.6998 15.24386941179884
